Houston, TX

4:45 PM CST on February 19, 2017 (GMT -0600)
Hobby

Weather History for KHOU - February, 2013

Change the Weather History Date:

Saturday, February 2, 2013

  Actual Average Record
Temperature  
Mean Temperature 61 °F 54 °F  
Max Temperature 76 °F 64 °F 83 °F (1911)
Min Temperature 46 °F 44 °F 14 °F (1951)
Degree Days  
Heating Degree Days 4 11  
Month to date heating degree days 12 22  
Since 1 July heating degree days 759 946  
Growing Degree Days 12 (Base 50)    
Moisture  
Dew Point 51 °F    
Average Humidity 69    
Maximum Humidity 100    
Minimum Humidity 38    
Precipitation  
Precipitation 0.00 in 0.11 in 1.70 in (1896)
Month to date precipitation 0.00 0.23  
Year to date precipitation 3.21 3.61  
Sea Level Pressure  
Sea Level Pressure 30.24 in    
Wind  
Wind Speed 3 mph (SSE)    
Max Wind Speed 9 mph    
Max Gust Speed 15 mph    
Visibility 10 miles    
Events Fog    
T = Trace of Precipitation, MM = Missing Value Source: NWS Daily Summary

Daily Weather History Graph

Daily Weather History Graph

Search for Another Location

Airport or City:

Trip Planner

Search our weather history database for the weather conditions in past years. The results will help you decide how hot, cold, wet, or windy it might be!

Date:

Astronomy

Feb. 02, 2013 Rise Set
Actual Time 7:10 AM CST 6:00 PM CST
Civil Twilight 6:45 AM CST 6:24 PM CST
Nautical Twilight 6:16 AM CST 6:53 PM CST
Astronomical Twilight 5:48 AM CST 7:21 PM CST
Moon No Moon Rise 10:55 AM CST (2/2)
Length of Visible Light 11h 39m
Length of Day
10h 50m
Waning Gibbous, 59% of the Moon is Illuminated
Feb 2
Waning Gibbous
Feb 3
Last Quarter
Feb 10
New
Feb 17
First Quarter
Feb 25
Full

Hourly Weather History & Observations

Time (CST) Temp. Dew Point Humidity Pressure Visibility Wind Dir Wind Speed Gust Speed Precip Events Conditions
12:53 AM 54.0 °F 46.9 °F 77% 30.25 in 10.0 mi ESE 4.6 mph - N/A   Clear
1:53 AM 53.1 °F 48.0 °F 83% 30.25 in 10.0 mi East 3.5 mph - N/A   Clear
2:53 AM 53.6 °F 48.2 °F 82% 30.22 in 10.0 mi ESE 3.5 mph - N/A   Clear
3:53 AM 52.0 °F 48.9 °F 89% 30.24 in 10.0 mi ENE 3.5 mph - N/A   Partly Cloudy
4:53 AM 51.1 °F 48.9 °F 92% 30.24 in 10.0 mi Calm Calm - N/A Fog Patches of Fog
5:53 AM 51.8 °F 48.2 °F 88% 30.23 in 10.0 mi Calm Calm - N/A Fog Patches of Fog
6:53 AM 48.9 °F 46.9 °F 93% 30.25 in 10.0 mi Calm Calm - N/A Fog Patches of Fog
7:53 AM 51.1 °F 50.0 °F 96% 30.27 in 10.0 mi Calm Calm - N/A   Scattered Clouds
8:53 AM 61.0 °F 55.0 °F 81% 30.28 in 10.0 mi Calm Calm - N/A   Partly Cloudy
9:53 AM 66.0 °F 54.0 °F 65% 30.28 in 10.0 mi South 6.9 mph - N/A   Scattered Clouds
10:53 AM 69.1 °F 52.0 °F 54% 30.28 in 10.0 mi SW 4.6 mph - N/A   Scattered Clouds
11:53 AM 71.1 °F 51.1 °F 49% 30.26 in 10.0 mi WSW 9.2 mph - N/A   Scattered Clouds
12:53 PM 73.9 °F 51.1 °F 45% 30.24 in 10.0 mi West 10.4 mph - N/A   Mostly Cloudy
1:53 PM 73.9 °F 50.0 °F 43% 30.21 in 10.0 mi WNW 3.5 mph - N/A   Mostly Cloudy
2:53 PM 75.0 °F 48.0 °F 38% 30.20 in 10.0 mi Calm Calm - N/A   Scattered Clouds
3:53 PM 75.9 °F 48.0 °F 37% 30.19 in 10.0 mi NNE 5.8 mph - N/A   Scattered Clouds
4:53 PM 73.0 °F 51.1 °F 46% 30.19 in 10.0 mi ESE 6.9 mph - N/A   Scattered Clouds
5:53 PM 68.0 °F 53.1 °F 59% 30.19 in 10.0 mi SSE 9.2 mph - N/A   Scattered Clouds
6:53 PM 64.9 °F 53.1 °F 65% 30.21 in 10.0 mi South 6.9 mph - N/A   Scattered Clouds
7:53 PM 62.1 °F 53.1 °F 72% 30.24 in 10.0 mi SSE 3.5 mph - N/A   Scattered Clouds
8:53 PM 60.1 °F 54.0 °F 80% 30.25 in 10.0 mi Calm Calm - N/A   Scattered Clouds
9:53 PM 59.0 °F 55.0 °F 87% 30.27 in 10.0 mi Calm Calm - N/A   Scattered Clouds
10:53 PM 57.0 °F 55.0 °F 93% 30.28 in 8.0 mi Calm Calm - N/A   Scattered Clouds
11:53 PM 55.9 °F 53.1 °F 90% 30.28 in 8.0 mi Calm Calm - N/A   Scattered Clouds